Location: Stanford
(52.2833°N, 2.4333°W)
Time: 23:30:44
(UTC+00:00)

CZ-2C R/B - Pass Details

Date: 22 January 2021
Orbit: 704 x 908 km, 98.1° (Epoch: 01 March)

Event Time Altitude Azimuth Distance (km) Brightness Sun altitude
Rises 18:59:15 0° 184° (S) 3,307 6.4 -21.0°
Reaches altitude 10° 19:01:37 10° 191° (S) 2,412 5.7 -21.4°
Maximum altitude 19:06:46 45° 263° (W) 1,147 4.3 -22.2°
Drops below altitude 10° 19:12:12 10° 336° (NNW) 2,547 5.9 -23.0°
Sets 19:14:46 0° 343° (NNW) 3,512 6.6 -23.4°
